Regional Weather Roundup
Issued by NWS Charleston, SC

Home | Current Version | Previous Version | Text Only | Print | Product List | Glossary On
Versions: 1 2 3 4 5 6 7 8 9 10 11 12 13 14 15 16 17 18 19 20 21 22 23 24 25 26 27 28 29 30 31 32 33 34 35 36 37 38 39 40 41 42 43 44 45 46 47 48 49 50
000
ASUS42 KCHS 201912
RWRCHS

REGIONAL WEATHER ROUNDUP
NATIONAL WEATHER SERVICE CHARLESTON SC
200 PM EST MON NOV 20 2017

NOTE: "FAIR" INDICATES FEW OR NO CLOUDS BELOW 12,000 FEET WITH NO
SIGNIFICANT WEATHER AND/OR OBSTRUCTIONS TO VISIBILITY.

NOT ALL STATIONS ARE QUALITY CONTROLLED. USE DATA WITH CAUTION...
ESPECIALLY DEWPOINT OBSERVATIONS.

SCZ027-030-031-034>040-042>050-202000-
...SOUTHEAST SOUTH CAROLINA...

CITY           SKY/WX    TMP DP  RH WIND       PRES   REMARKS
N CHARLESTON   MOSUNNY   61  30  31 N6        30.23F
WATERFRONT PRK NOT AVBL
JOHNS ISLAND   FAIR      59  37  44 E6        30.24S
PINOPOLIS        N/A     55  37  50 VRB3      30.15F
MONCKS CORNER  FAIR      59  32  36 CALM      30.24S
SUMMERVILLE    FAIR      59  30  33 N7        30.24F
BEAUFORT MCAS  CLOUDY    61  32  33 E5        30.24F
BEAUFORT ARPT  FAIR      59  36  41 N3        30.23F HAZE
HILTON HEAD IS SUNNY     57  39  51 NE7       30.24F
WALTERBORO     CLEAR     59  32  36 E3        30.24F
ALLENDALE      FAIR      59  30  33 CALM      30.22F

...SOUTHERN MIDLANDS AND PEE DEE...

CITY           SKY/WX    TMP DP  RH WIND       PRES   REMARKS
GEORGETOWN     FAIR      59  28  31 E6        30.25S
KINGSTREE      FAIR      59  21  23 NE3       30.24S
ORANGEBURG     SUNNY     59  29  31 VRB3      30.24S
BARNWELL         N/A     63  30  29 CALM      30.23F
AIKEN          FAIR      57  28  33 SE3       30.25F
MANNING        FAIR      59  32  36 MISG      30.24S
COLUMBIA       MOSUNNY   61  29  29 NE3       30.22F
SUMTER         SUNNY     60  23  24 CALM      30.21F
FLORENCE       SUNNY     59  23  25 SE3       30.24F
MYRTLE BEACH   SUNNY     60  29  30 VRB3      30.24F
N MYRTLE BEACH SUNNY     60  26  27 NE6       30.23S

$$

GAZ063-065-086>088-099>101-113>116-118-119-134>141-150-202000-
...SOUTHEAST GEORGIA...

CITY           SKY/WX    TMP DP  RH WIND       PRES   REMARKS
SAVANNAH ARPT  PTSUNNY   63  32  31 E9        30.22F
HUNTER AAF     SUNNY     61  45  57 E12       30.19F
FORT STEWART   SUNNY     64  41  44 E9        30.19F
STATESBORO     SUNNY     62  24  23 SE5       30.22F
SYLVANIA       CLEAR     62  33  34 E6        30.23F
CLAXTON        FAIR      63  34  33 NE5       30.21F

...CSRA...CENTRAL AND FAR SOUTHEAST GEORGIA...

CITY           SKY/WX    TMP DP  RH WIND       PRES   REMARKS
THOMSON        SUNNY     58  29  33 S6        30.27F
AUGUSTA-BUSH   SUNNY     61  28  28 VRB5      30.22F
AUGUSTA-DANIEL SUNNY     61  29  29 VRB6      30.23F
SWAINSBORO     FAIR      63  32  31 NE5       30.22F
VIDALIA        SUNNY     64  36  34 E7        30.20F
EASTMAN        FAIR      63  11  12 E7        30.22F
HAZLEHURST     FAIR      64  15  15 E5        30.18F
ALMA           SUNNY     67  41  38 CALM      30.17F
WAYCROSS       SUNNY     68  44  42 E8        30.17F
JESUP          FAIR      70  46  43 CALM      30.19S
BAXLEY         FAIR      63  36  36 SE3       30.18F
BRUNSWICK      CLOUDY    64  48  55 NE15      30.19F
SAINT SIMONS   CLOUDY    67  52  58 NE14G23   30.18F

$$

SCZ027-028-034-036>038-045-046-048>050-GAZ119-141-202000-
...LAKE AND SUPPLEMENTAL COASTAL OBSERVATIONS...

STATION/POSITION TIME  TEMP    WIND        PRES    WAVE   SWELL
                       AIR SEA DIR/SP/G            HT/PER HT/PER/DIR
                 (UTC) (F)     (DEG/KT/KT) (MB)    (FT/S) (FT/S/D)
WINYAH BAY       1745   54      80/  6     1024.0
LAKE MURRAY      1820   57      CALM  /  2 1023.0
ACE BASIN NERRS  1745   60      60/  3     1024.0
FORT PULASKI     1848   57 61   60/ 11/ 14 1023.8F
SAPELO ISLAND    1800   64      60/ 11     1023.0

$$

ANZ835-935-AMZ111-154-330-350-352-354-370-450-454-472-202000-
...C-MAN AND BUOY OBSERVATIONS...

STATION/POSITION TIME  TEMP    WIND        PRES    WAVE   SWELL
                       AIR SEA DIR/SP/G            HT/PER HT/PER/DIR
                 (UTC) (F)     (DEG/KT/KT) (MB)    (FT/S) (FT/S/D)
BUOY 41004       1850   59 74   40/ 12/ 17 1023.3F   4/ 6   2/ 70/ 9
BUOY 41008       1850   63 68   70/ 14/ 17 1022.0F   3/ 6   2/140/ 9
FOLLY BEACH CMAN 1800   55      70/ 10/ 12 1024.8F
CAPERS NEARSHORE 1808   54 62   60/ 10/ 16 1023.9F
FRIPP NEARSHORE  1808   56 62   40/ 12/ 21 1023.0S


STATION/POSITION TIME  TEMP    WIND        PRES    WAVE   SWELL
                       AIR SEA DIR/SP/G            HT/PER HT/PER/DIR
                 (UTC) (F)     (DEG/KT/KT) (MB)    (FT/S) (FT/S/D)
5E ST. MARYS GA  1830      68                N/A     4/ 5
FRYING PAN BUOY  1850   54 69   20/ 14/ 17 1023.4F   3/ 5   2/110/ 8
BUOY 41025       1850   52 65  340/ 10/ 12 1023.9R   3/ 8   3/ 70/ 8
CAPE LOOKOUT NC  1800          330/  6/  8 1024.1F
BUOY 41002       1850   66 77   40/ 14/ 19 1021.3S   6/ 7   5/340/ 7
BUOY 41010       NOT AVBL
ST AUGUSTINE FL  1900   70 67   80/ 12/ 13 1020.7F


$$




USA.gov is the U.S. government's official web portal to all federal, state and local government web resources and services.